Location: Luz Observatory
(34.5000°N, 117.2833°W)
Time: 02:20:57
(UTC-08:00)

Cosmos 1484 Rocket - Visible Passes

Search period start: 24 February 2017 00:00
Search period end: 06 March 2017 00:00
Orbit: 507 x 563 km, 97.3° (Epoch: 24 February)

Date Brightness Start Highest point End Pass type
(mag) Time Alt. Az. Time Alt. Az. Time Alt. Az.
24 Feb 6.3 05:33:20 10° ENE 05:35:22 14° E 05:37:25 10° SE visible
25 Feb 6.7 05:25:34 10° ENE 05:26:30 11° E 05:27:27 10° ESE visible
27 Feb 6.3 18:55:24 10° WSW 18:57:17 13° W 18:59:09 10° WNW visible
28 Feb 6.1 18:45:51 10° SW 18:48:25 17° W 18:50:59 10° NW visible
01 Mar 5.7 18:36:33 10° SSW 18:39:35 21° W 18:42:36 10° NW visible
02 Mar 5.3 18:27:23 10° SSW 18:30:44 27° W 18:34:05 10° NW visible
03 Mar 4.7 18:18:19 10° SSW 18:21:55 35° W 18:25:29 10° NNW visible
04 Mar 4.1 18:09:20 10° S 18:13:06 46° W 18:16:49 10° NNW visible
